User: anonymous   Login
Location: Unspecified
(0.0000°N, 0.0000°E)
Time: 01:13:42
(UTC+00:00)
Language:

Transit 2A Rocket - Orbit

View from above orbital plane
View from above orbital plane
View from above satellite
View from above satellite

Ground track
Ground track

The orbit data is extracted from the following two-line orbital elements,

1    47U 60007C   19108.65226484 -.00000025  00000-0  19645-4 0  9997
2    47  66.6660 213.4821 0235219 255.3033 102.1895 14.42028749 73723
Epoch (UTC): 18 April 2019 15:39:15
Eccentricity: 0.0235219
inclination: 66.6660°
perigee height: 584 km
apogee height: 919 km
right ascension of ascending node: 213.4821°
argument of perigee: 255.3033°
revolutions per day: 14.42028749
mean anomaly at epoch: 102.1895°
orbit number at epoch: 7372

The dashed part of the orbit path shows where the satellite is in the earth's shadow,  

DLR